Shawnee, OK

9:57 AM CDT on July 28, 2017 (GMT -0500)
Shawnee Municipal

Weather History for KSNL - March, 2013

Change the Weather History Date:

Thursday, March 14, 2013

  Actual Average (KTIK) Record (KTIK)
Temperature  
Mean Temperature 62 °F -  
Max Temperature 80 °F 57 °F 84 °F (2002)
Min Temperature 44 °F 37 °F 26 °F (1997)
Degree Days  
Heating Degree Days 3    
Growing Degree Days 12 (Base 50)    
Moisture  
Dew Point 41 °F    
Average Humidity 48    
Maximum Humidity 62    
Minimum Humidity 30    
Precipitation  
Precipitation 0.00 in - - ()
Sea Level Pressure  
Sea Level Pressure 30.23 in    
Wind  
Wind Speed 10 mph (SSW)    
Max Wind Speed 17 mph    
Max Gust Speed 22 mph    
Visibility 10 miles    
Events      
Averages and records for this station are not official NWS values.
T = Trace of Precipitation, MM = Missing Value Source: NWS Daily Summary

Daily Weather History Graph

Daily Weather History Graph

Search for Another Location

Airport or City:

Trip Planner

Search our weather history database for the weather conditions in past years. The results will help you decide how hot, cold, wet, or windy it might be!

Date:

Astronomy

Mar. 14, 2013 Rise Set
Actual Time 7:39 AM CDT 7:34 PM CDT
Civil Twilight 7:14 AM CDT 8:00 PM CDT
Nautical Twilight 6:44 AM CDT 8:29 PM CDT
Astronomical Twilight 6:14 AM CDT 8:59 PM CDT
Moon 9:01 AM CDT (3/14) 10:43 PM CDT (3/14)
Length of Visible Light 12h 45m
Length of Day
11h 55m
Waxing Crescent, 9% of the Moon is Illuminated
Mar 14
Waxing Crescent
Mar 19
First Quarter
Mar 27
Full
Apr 2
Last Quarter
Apr 10
New

Hourly Weather History & Observations

Time (CDT) Temp. Windchill Dew Point Humidity Pressure Visibility Wind Dir Wind Speed Gust Speed Precip Events Conditions
12:15 AM 48.2 °F - 32.0 °F 54% 30.34 in 10.0 mi SE 9.2 mph - N/A   Clear
12:35 AM 48.2 °F - 32.0 °F 54% 30.33 in 10.0 mi SE 10.4 mph - N/A   Clear
12:55 AM 48.2 °F - 32.0 °F 54% 30.33 in 10.0 mi SE 8.1 mph - N/A   Clear
1:15 AM 46.4 °F 42.4 °F 32.0 °F 57% 30.33 in 10.0 mi SE 8.1 mph - N/A   Clear
1:35 AM 48.2 °F - 30.2 °F 50% 30.32 in 10.0 mi SSE 11.5 mph - N/A   Clear
1:55 AM 48.2 °F - 32.0 °F 54% 30.32 in 10.0 mi SSE 10.4 mph - N/A   Clear
2:15 AM 48.2 °F - 32.0 °F 54% 30.31 in 10.0 mi South 9.2 mph - N/A   Clear
2:35 AM 46.4 °F 41.5 °F 32.0 °F 57% 30.31 in 10.0 mi South 10.4 mph - N/A   Clear
2:55 AM 48.2 °F - 32.0 °F 54% 30.31 in 10.0 mi South 10.4 mph - N/A   Clear
3:15 AM 46.4 °F 41.9 °F 32.0 °F 57% 30.30 in 10.0 mi South 9.2 mph - N/A   Clear
3:35 AM 48.2 °F - 33.8 °F 58% 30.29 in 10.0 mi South 10.4 mph - N/A   Clear
3:55 AM 48.2 °F - 33.8 °F 58% 30.29 in 10.0 mi South 9.2 mph - N/A   Clear
4:15 AM 44.6 °F 40.2 °F 32.0 °F 61% 30.29 in 10.0 mi South 8.1 mph - N/A   Clear
4:35 AM 46.4 °F 41.9 °F 33.8 °F 62% 30.28 in 10.0 mi South 9.2 mph - N/A   Clear
4:55 AM 46.4 °F 41.9 °F 33.8 °F 62% 30.28 in 10.0 mi South 9.2 mph - N/A   Clear
5:15 AM 46.4 °F 42.4 °F 33.8 °F 62% 30.28 in 10.0 mi South 8.1 mph - N/A   Clear
5:35 AM 46.4 °F 41.9 °F 33.8 °F 62% 30.28 in 10.0 mi South 9.2 mph - N/A   Clear
5:55 AM 46.4 °F 41.5 °F 33.8 °F 62% 30.28 in 10.0 mi South 10.4 mph - N/A   Clear
6:15 AM 48.2 °F - 35.6 °F 62% 30.28 in 10.0 mi South 11.5 mph - N/A   Clear
6:35 AM 48.2 °F - 35.6 °F 62% 30.28 in 10.0 mi South 10.4 mph - N/A   Clear
6:55 AM 48.2 °F - 33.8 °F 58% 30.29 in 10.0 mi South 10.4 mph - N/A   Clear
7:15 AM 48.2 °F - 33.8 °F 58% 30.28 in 10.0 mi South 11.5 mph - N/A   Clear
7:35 AM 48.2 °F - 33.8 °F 58% 30.28 in 10.0 mi South 11.5 mph - N/A   Clear
7:55 AM 48.2 °F - 35.6 °F 62% 30.28 in 10.0 mi South 11.5 mph - N/A   Clear
8:15 AM 48.2 °F - 33.8 °F 58% 30.28 in 10.0 mi South 10.4 mph - N/A   Clear
8:35 AM 51.8 °F - 35.6 °F 54% 30.28 in 10.0 mi South 10.4 mph - N/A   Clear
8:55 AM 51.8 °F - 35.6 °F 54% 30.28 in 10.0 mi South 10.4 mph - N/A   Clear
9:15 AM 53.6 °F - 37.4 °F 54% 30.28 in 10.0 mi South 11.5 mph - N/A   Clear
9:55 AM 57.2 °F - 39.2 °F 51% 30.28 in 10.0 mi SSW 11.5 mph - N/A   Clear
10:15 AM 59.0 °F - 41.0 °F 51% 30.28 in 10.0 mi SSW 15.0 mph - N/A   Clear
10:35 AM 60.8 °F - 41.0 °F 48% 30.27 in 10.0 mi SSW 15.0 mph 18.4 mph N/A   Clear
10:55 AM 62.6 °F - 42.8 °F 48% 30.26 in 10.0 mi SSW 15.0 mph - N/A   Clear
11:15 AM 64.4 °F - 42.8 °F 45% 30.26 in 10.0 mi SSW 17.3 mph 21.9 mph N/A   Clear
11:35 AM 66.2 °F - 42.8 °F 43% 30.26 in 10.0 mi SW 16.1 mph 19.6 mph N/A   Clear
11:55 AM 68.0 °F - 44.6 °F 43% 30.25 in 10.0 mi SSW 15.0 mph 19.6 mph N/A   Clear
12:15 PM 68.0 °F - 44.6 °F 43% 30.25 in 10.0 mi SW 13.8 mph 18.4 mph N/A   Clear
12:35 PM 71.6 °F - 46.4 °F 41% 30.24 in 10.0 mi SSW 16.1 mph - N/A   Clear
12:55 PM 71.6 °F - 44.6 °F 38% 30.24 in 10.0 mi SSW 11.5 mph 17.3 mph N/A   Clear
1:15 PM 71.6 °F - 46.4 °F 41% 30.24 in 10.0 mi SSW 10.4 mph - N/A   Clear
1:35 PM 77.0 °F - 46.4 °F 34% 30.23 in 10.0 mi SW 10.4 mph - N/A   Clear
1:55 PM 77.0 °F - 46.4 °F 34% 30.22 in 10.0 mi WSW 11.5 mph 16.1 mph N/A   Clear
2:15 PM 77.0 °F - 46.4 °F 34% 30.21 in 10.0 mi SW 11.5 mph 18.4 mph N/A   Clear
2:35 PM 77.0 °F - 46.4 °F 34% 30.20 in 10.0 mi WSW 12.7 mph 17.3 mph N/A   Clear
2:55 PM 77.0 °F - 48.2 °F 36% 30.19 in 10.0 mi SW 10.4 mph 18.4 mph N/A   Clear
3:15 PM 77.0 °F - 48.2 °F 36% 30.19 in 10.0 mi SW 9.2 mph 17.3 mph N/A   Clear
3:35 PM 78.8 °F - 46.4 °F 32% 30.18 in 10.0 mi WSW 10.4 mph - N/A   Clear
3:55 PM 78.8 °F - 46.4 °F 32% 30.18 in 10.0 mi SSW 11.5 mph 16.1 mph N/A   Clear
4:15 PM 78.8 °F - 46.4 °F 32% 30.17 in 10.0 mi SW 6.9 mph - N/A   Clear
4:35 PM 78.8 °F - 46.4 °F 32% 30.17 in 10.0 mi SW 10.4 mph 16.1 mph N/A   Clear
4:55 PM 80.6 °F - 46.4 °F 30% 30.16 in 10.0 mi WSW 11.5 mph - N/A   Clear
5:15 PM 78.8 °F - 46.4 °F 32% 30.16 in 10.0 mi SW 10.4 mph 18.4 mph N/A   Clear
5:35 PM 80.6 °F - 46.4 °F 30% 30.15 in 10.0 mi SSW 12.7 mph - N/A   Clear
5:55 PM 78.8 °F - 46.4 °F 32% 30.15 in 10.0 mi SW 10.4 mph - N/A   Clear
6:15 PM 78.8 °F - 46.4 °F 32% 30.14 in 10.0 mi SSW 11.5 mph 18.4 mph N/A   Clear
6:35 PM 78.8 °F - 46.4 °F 32% 30.13 in 10.0 mi SSW 10.4 mph 18.4 mph N/A   Clear
6:55 PM 77.0 °F - 46.4 °F 34% 30.13 in 10.0 mi SW 9.2 mph - N/A   Clear
7:15 PM 77.0 °F - 46.4 °F 34% 30.14 in 10.0 mi SW 8.1 mph - N/A   Clear
7:35 PM 73.4 °F - 46.4 °F 38% 30.14 in 10.0 mi SW 6.9 mph - N/A   Clear
7:55 PM 71.6 °F - 44.6 °F 38% 30.14 in 10.0 mi SSW 5.8 mph - N/A   Clear
8:15 PM 71.6 °F - 46.4 °F 41% 30.14 in 10.0 mi SSW 6.9 mph - N/A   Clear
8:35 PM 68.0 °F - 46.4 °F 46% 30.13 in 10.0 mi South 8.1 mph - N/A   Clear
8:55 PM 68.0 °F - 46.4 °F 46% 30.13 in 10.0 mi South 8.1 mph - N/A   Clear
9:15 PM 66.2 °F - 46.4 °F 49% 30.14 in 10.0 mi South 6.9 mph - N/A   Clear
9:35 PM 66.2 °F - 46.4 °F 49% 30.14 in 10.0 mi South 6.9 mph - N/A   Clear
9:55 PM 64.4 °F - 46.4 °F 52% 30.15 in 10.0 mi SSW 6.9 mph - N/A   Clear
10:15 PM 62.6 °F - 46.4 °F 55% 30.15 in 10.0 mi South 8.1 mph - N/A   Clear
10:35 PM 62.6 °F - 46.4 °F 55% 30.15 in 10.0 mi South 8.1 mph - N/A   Clear
10:55 PM 62.6 °F - 46.4 °F 55% 30.15 in 10.0 mi South 8.1 mph - N/A   Clear
11:15 PM 62.6 °F - 46.4 °F 55% 30.15 in 10.0 mi South 6.9 mph - N/A   Clear
11:35 PM 60.8 °F - 46.4 °F 59% 30.14 in 10.0 mi South 6.9 mph - N/A   Clear
11:55 PM 60.8 °F - 46.4 °F 59% 30.14 in 10.0 mi South 6.9 mph - N/A   Clear